Regional Weather Roundup
Issued by NWS

Home | Current Version | Previous Version | Graphics & Text | Print | Product List | Glossary On
Versions: 1 2 3 4 5 6 7 8 9 10 11 12 13 14 15 16 17 18 19 20 21 22 23 24 25 26 27 28 29 30 31 32 33 34 35 36 37 38 39 40 41 42 43 44 45 46 47 48 49 50
219
ASUS43 KOAX 051502
RWRNE

WEATHER ROUNDUP FOR NEBRASKA
NATIONAL WEATHER SERVICE OMAHA NE
900 AM CST FRI FEB 05 2016

NOTES: SATELLITE DATA IS BEING USED TO AUGMENT CLOUD COVER ABOVE
       12000 FEET.
       "FAIR" INDICATES FEW OR NO CLOUDS BELOW 12,000 FEET WITH NO
       SIGNIFICANT WEATHER AND/OR OBSTRUCTIONS TO VISIBILITY.

  * THESE STATIONS DO NOT REPORT WEATHER SUCH AS RAIN...SNOW OR FOG.

NEZ001>004-019>022-054>056-051600-
NEBRASKA PANHANDLE

CITY           SKY/WX    TMP DP  RH WIND       PRES   REMARKS
SCOTTSBLUFF    CLEAR     15   8  73 NW8       30.28R WCI   4
ALLIANCE       CLEAR     19  14  81 W12       30.21R WCI   7
CHADRON        CLOUDY    31  23  72 W22G31    30.22S WCI  18
KIMBALL        CLEAR     20  12  70 W16       30.26R WCI   6
SIDNEY         CLEAR     19  12  74 W15       30.26R WCI   5
$$

NEZ057>060-069>072-079>082-051600-
SOUTHWEST NEBRASKA

CITY           SKY/WX    TMP DP  RH WIND       PRES   REMARKS
NORTH PLATTE   SUNNY     27  20  75 W10       30.22R WCI  17
IMPERIAL       SUNNY     26  17  68 W12       30.25R WCI  16
MCCOOK         CLOUDY    32  28  85 W12       30.27R WCI  23
$$

NEZ005>010-023>029-035>040-094-051600-
NORTH CENTRAL NEBRASKA

CITY           SKY/WX    TMP DP  RH WIND       PRES   REMARKS
VALENTINE      PTSUNNY   29  23  78 W7        30.17R WCI  22
AINSWORTH      CLOUDY    29  24  81 W7        30.17R WCI  22
BROKEN BOW     SUNNY     29  26  89 W8        30.19S WCI  21
ORD            SUNNY     23  21  92 E3        30.20S FOG
$$

NEZ041-046>049-061>064-073>077-083>087-051600-
SOUTH CENTRAL NEBRASKA

CITY           SKY/WX    TMP DP  RH WIND       PRES   REMARKS
GRAND ISLAND   LGT SNOW  27  25  92 S12       30.26S FOG     WCI  17
HASTINGS       LGT SNOW  26  23  88 SW13      30.26S VSB 1   WCI  15
HEBRON         LGT SNOW  25  22  89 S13       30.34F WCI  13
KEARNEY *      CLOUDY    28 -18  12 SW14      30.25R WCI  17
$$

NEZ011>018-030>034-042>045-051600-
NORTHEAST NEBRASKA

CITY           SKY/WX    TMP DP  RH WIND       PRES   REMARKS
NORFOLK        CLOUDY    25  21  85 S20       30.24R FOG     WCI  11
COLUMBUS *     CLOUDY    25  16  68 S14       30.29S WCI  13
FREMONT        CLOUDY    24  18  78 S10       30.33S WCI  13
TEKAMAH        LGT SNOW  20  17  88 S8        30.35S FOG     WCI  10
$$

NEZ050>053-065>068-078-088>093-051600-
SOUTHEAST NEBRASKA

CITY           SKY/WX    TMP DP  RH WIND       PRES   REMARKS
LINCOLN        LGT SNOW  23  19  85 S9        30.36S VSB 1   WCI  13
OMAHA EPPLEY   CLOUDY    24  20  84 S10       30.37S WCI  14
BEATRICE       CLOUDY    26  22  85 S8        30.37S WCI  17
FALLS CITY     CLOUDY    25  21  85 SE5       30.41R WCI  19
NEBRASKA CITY  CLOUDY    24  21  90 S9        30.37F WCI  14
$$

NEZ044-045-051>053-067-051600-
OMAHA AREA

CITY           SKY/WX    TMP DP  RH WIND       PRES   REMARKS
OMAHA EPPLEY   CLOUDY    24  20  84 S10       30.37S WCI  14
FREMONT        CLOUDY    24  18  78 S10       30.33S WCI  13
OFFUTT AFB     CLOUDY    23  22  99 SE7       30.36F WCI  14
WAHOO          CLOUDY    21  19  93 S6        30.34S WCI  14
$$




USA.gov is the U.S. government's official web portal to all federal, state and local government web resources and services.